Waarnemingen

Advertentie
Mijn weer
Junsele A, Zweden (2243): temperatuur & dauwpunt: 18.02.2018 22:00:00 - 24.02.2018 22:00:00 (CET)Junsele A, Zweden (2243): windsnelheid & windstoten: 18.02.2018 22:00:00 - 24.02.2018 22:00:00 (CET)Junsele A, Zweden (2243): windrichting: 18.02.2018 22:00:00 - 24.02.2018 22:00:00 (CET)Junsele A, Zweden (2243): luchtdruk: 18.02.2018 22:00:00 - 24.02.2018 22:00:00 (CET)Junsele A, Zweden (2243): zicht: 18.02.2018 22:00:00 - 24.02.2018 22:00:00 (CET)Junsele A, Zweden (2243): neerslag: 18.02.2018 22:00:00 - 24.02.2018 22:00:00 (CET)
Datum & Tijd tt [°C] td [°C] ff [km/u] ff [kn] fx [km/u] fx [kn] dd ppp [hPa] vv [km] rr [mm]
24.02.2018 22:00:00 -23,7 -25,9 1 1 4 2 OZO 1046,1 50 0,0
24.02.2018 21:00:00 -22,5 -24,7 1 1 3 2 ONO 1045,8 50 0,0
24.02.2018 20:00:00 -21,0 -23,0 1 1 2 1 O 1045,3 50 0,1
24.02.2018 19:00:00 -19,9 -21,7 1 0 2 1 NNW 1044,7 50 0,0
24.02.2018 18:00:00 -17,2 -18,6 1 1 5 3 ONO 1043,9 33 0,0
24.02.2018 17:00:00 -15,4 -16,8 5 3 8 4 O 1043,3 30 0,0
24.02.2018 16:00:00 -13,3 -15,0 3 2 13 7 O 1042,9 28 0,0
24.02.2018 15:00:00 -11,9 -14,2 8 4 19 10 O 1042,3 4,1 0,0
24.02.2018 14:00:00 -11,5 -13,5 8 5 20 11 O 1041,9 3,2 0,1
24.02.2018 13:00:00 -11,7 -13,6 5 3 16 9 O 1041,7 2,7 0,4
24.02.2018 12:00:00 -12,1 -14,1 10 5 23 12 OZO 1041,5 2,7 0,2
24.02.2018 11:00:00 -12,4 -14,2 7 4 14 7 O 1041,4 1,8 0,5
24.02.2018 10:00:00 -13,0 -14,9 6 4 14 8 O 1041,2 1,5 0,3
24.02.2018 09:00:00 -13,4 -15,1 7 4 15 8 O 1040,6 1,6 0,5
24.02.2018 08:00:00 -13,7 -15,4 5 3 13 7 O 1040,5 2,6 0,3
24.02.2018 07:00:00 -13,7 -15,4 5 3 13 7 OZO 1040,3 1,7 0,1
24.02.2018 06:00:00 -13,8 -15,5 5 3 15 8 OZO 1040,1 2,3 0,2
24.02.2018 05:00:00 -13,4 -15,1 8 4 16 9 OZO 1039,6 3,1 0,2
24.02.2018 04:00:00 -13,4 -15,1 6 3 12 7 OZO 1039,6 5 0,0
24.02.2018 03:00:00 -13,5 -15,2 5 3 12 7 OZO 1039,4 4,0 0,0
24.02.2018 02:00:00 -13,3 -15,0 5 3 10 6 O 1039,4 9 0,0
24.02.2018 01:00:00 -13,0 -14,7 4 2 9 5 O 1039,3 6 0,0
24.02.2018 00:00:00 -12,7 -14,6 5 3 14 8 O 1039,0 20 0,0
23.02.2018 23:00:00 -12,2 -14,2 7 4 15 8 O 1038,6 14 0,0
23.02.2018 22:00:00 -12,2 -14,1 5 3 11 6 O 1038,3 24 0,0
23.02.2018 21:00:00 -11,6 -13,7 7 4 15 8 O 1037,6 15 0,0
23.02.2018 20:00:00 -10,7 -12,3 5 3 11 6 OZO 1036,8 15 0,0
23.02.2018 19:00:00 -10,2 -11,9 3 2 10 5 OZO 1036,3 16 0,0
23.02.2018 18:00:00 -9,9 -11,8 4 2 8 4 OZO 1035,9 14 0,0
23.02.2018 17:00:00 -9,3 -11,7 3 1 5 3 ZO 1035,3 9 0,0
23.02.2018 16:00:00 -9,0 -12,0 2 1 7 4 ZW 1034,7 10 0,0
23.02.2018 15:00:00 -9,1 -12,3 2 1 7 4 W 1034,3 - 0,0
23.02.2018 14:00:00 -9,0 -12,6 4 2 8 4 W 1034,1 24 0,0
23.02.2018 13:00:00 -9,2 -12,6 4 2 9 5 W 1034,0 36 0,0
23.02.2018 12:00:00 -9,0 -12,8 3 2 7 4 W 1033,8 46 0,0
23.02.2018 11:00:00 -10,1 -13,0 4 2 9 5 NO 1033,3 35 0,0
23.02.2018 10:00:00 -10,7 -13,3 3 2 9 5 NNO 1033,0 31 0,0
23.02.2018 09:00:00 -11,6 -13,8 4 2 9 5 NNO 1032,5 39 0,0
23.02.2018 08:00:00 -12,1 -14,1 5 3 11 6 NNO 1032,0 7 0,0
23.02.2018 07:00:00 -12,4 -14,5 5 3 11 6 NNO 1031,5 50 0,0
23.02.2018 06:00:00 -13,0 -15,3 3 2 11 6 N 1030,9 50 0,0
23.02.2018 05:00:00 -13,0 -15,7 5 3 16 8 NNO 1030,1 50 0,0
23.02.2018 04:00:00 -12,7 -15,8 7 4 15 8 NNO 1029,9 50 0,0
23.02.2018 03:00:00 -12,8 -15,5 4 2 13 7 NNO 1029,4 50 0,0
23.02.2018 02:00:00 -12,8 -15,2 5 3 16 9 NNO 1028,9 50 0,0
23.02.2018 01:00:00 -12,5 -14,7 9 5 17 9 NNO 1028,6 50 0,0
23.02.2018 00:00:00 -12,5 -14,2 5 3 11 6 N 1028,5 50 0,0
22.02.2018 23:00:00 -12,0 -13,6 4 2 10 5 NO - 50 0,0
22.02.2018 22:00:00 -12,9 -14,5 2 1 6 4 NNO 1028,2 2,0 0,0
22.02.2018 21:00:00 -13,3 -14,4 3 2 5 3 N 1028,2 9 0,0
22.02.2018 20:00:00 -13,3 -14,8 1 1 4 2 ZZW 1027,8 21 0,0
22.02.2018 19:00:00 -13,2 -14,6 2 1 5 3 NNO 1028,0 7 0,0
22.02.2018 18:00:00 -12,8 -14,1 1 1 5 3 NO 1027,7 3,4 0,0
22.02.2018 17:00:00 -12,1 -13,5 2 1 3 2 NO 1027,8 3,5 0,0
22.02.2018 16:00:00 -10,4 -12,3 1 1 3 2 NNO 1027,8 3,7 0,0
22.02.2018 15:00:00 -9,8 -12,3 1 1 3 2 ONO 1027,9 1,7 0,0
22.02.2018 14:00:00 -10,7 -13,1 1 1 5 3 NNO - 5 0,0
22.02.2018 13:00:00 -10,5 -13,6 3 2 5 3 WNW 1028,7 4,3 0,0
22.02.2018 12:00:00 -12,0 -15,3 3 1 5 3 ZZW 1029,0 5 0,0
22.02.2018 11:00:00 -11,7 -16,4 1 1 4 2 ZZO 1029,1 2,2 0,0
22.02.2018 10:00:00 -15,8 -18,2 1 0 3 2 N 1029,5 1,2 0,0
22.02.2018 09:00:00 -18,3 -20,5 3 2 6 3 W 1029,7 3,9 0,0
22.02.2018 08:00:00 -19,2 -21,2 2 1 5 3 OZO 1029,6 1,9 0,0
22.02.2018 07:00:00 -19,2 -21,3 3 1 4 2 OZO 1029,7 3,6 0,0
22.02.2018 06:00:00 -19,8 -21,9 1 1 4 2 ONO 1029,6 1,9 0,0
22.02.2018 05:00:00 -20,9 -22,9 3 2 4 2 OZO 1029,5 2,7 0,1
22.02.2018 04:00:00 -21,5 -23,6 2 1 4 2 O 1029,7 8 0,0
22.02.2018 03:00:00 -20,3 -22,2 1 0 4 2 N 1029,7 50 0,0
22.02.2018 02:00:00 -18,1 -19,6 1 1 4 2 NNW 1029,4 10 0,0
22.02.2018 01:00:00 -16,5 -18,3 2 1 4 2 O 1029,4 8 0,1
22.02.2018 00:00:00 -15,8 -17,2 1 1 4 2 NNO 1029,6 7 0,0
21.02.2018 23:00:00 -15,5 -17,1 1 1 4 2 N - 6 0,0
21.02.2018 22:00:00 -14,7 -16,4 2 1 5 3 ONO - 5 0,0
21.02.2018 21:00:00 -13,7 -15,0 1 1 5 3 O - 2,2 0,0
21.02.2018 20:00:00 -14,0 -15,3 3 2 4 2 O 1028,7 4,0 0,0
21.02.2018 19:00:00 -13,6 -14,8 3 1 5 3 O - 5 0,0
21.02.2018 18:00:00 -14,7 -16,4 2 1 6 3 O 1028,1 9 0,0
21.02.2018 17:00:00 -14,4 -15,4 2 1 4 2 ONO 1027,8 19 0,0
21.02.2018 16:00:00 -11,1 -13,3 2 1 9 5 ZO 1027,7 22 0,0
21.02.2018 15:00:00 -10,5 -13,1 6 4 11 6 OZO 1028,0 16 0,0
21.02.2018 14:00:00 -11,2 -14,0 4 2 9 5 OZO 1028,4 3,9 0,0
21.02.2018 13:00:00 -11,0 -14,6 4 2 6 3 ZO 1028,7 1,8 0,0
21.02.2018 12:00:00 -12,4 -16,9 3 1 5 3 ZZW 1029,0 39 0,0
21.02.2018 11:00:00 -14,4 -18,6 2 1 6 3 ZZO 1029,0 29 0,0
21.02.2018 10:00:00 -18,2 -20,7 1 1 4 2 O 1029,3 7 0,0
21.02.2018 09:00:00 -21,6 -23,7 2 1 4 2 ZO 1029,5 1,5 0,0
21.02.2018 08:00:00 -25,2 -27,7 2 1 4 2 ZO 1029,5 1,1 0,0
21.02.2018 07:00:00 -24,9 -27,4 2 1 4 2 O 1029,4 1,6 0,1
21.02.2018 06:00:00 -23,6 -25,7 3 1 5 3 ZO 1029,2 25 0,0
21.02.2018 05:00:00 -23,7 -26,0 3 1 4 2 OZO 1029,4 9 0,0
21.02.2018 04:00:00 -22,4 -24,6 0 0 4 2 WNW 1029,7 49 0,0
21.02.2018 03:00:00 -21,5 -23,7 3 2 5 3 O 1029,6 47 0,0
21.02.2018 02:00:00 -19,7 -21,6 1 1 5 3 O 1029,5 47 0,1
21.02.2018 01:00:00 -18,3 -19,6 2 1 6 3 NO 1029,7 32 0,0
21.02.2018 00:00:00 -16,2 -17,7 3 1 5 3 NO 1029,7 32 0,0
20.02.2018 23:00:00 -14,5 -15,9 3 2 5 3 ONO 1029,6 28 0,0
20.02.2018 22:00:00 -13,1 -14,4 3 2 6 4 ONO 1029,5 22 0,0
20.02.2018 21:00:00 -12,3 -13,7 3 2 9 5 ONO 1029,2 19 0,1
20.02.2018 20:00:00 -12,0 -13,3 4 2 9 5 O 1029,2 11 0,0
20.02.2018 19:00:00 -11,0 -12,5 3 1 9 5 O 1029,3 12 0,0
20.02.2018 18:00:00 -10,3 -11,8 4 2 12 6 O 1029,1 3,5 0,0
20.02.2018 17:00:00 -9,7 -11,2 5 3 13 7 O 1029,0 7 0,0
20.02.2018 16:00:00 -8,9 -10,3 4 2 9 5 O 1028,9 3,6 0,0
20.02.2018 15:00:00 -8,7 -10,4 5 3 10 5 OZO 1029,1 5 0,0
20.02.2018 14:00:00 -8,7 -10,5 4 2 9 5 O 1029,5 8 0,0
20.02.2018 13:00:00 -8,4 -10,5 3 2 9 5 O 1029,5 5 0,0
20.02.2018 12:00:00 -9,2 -11,1 5 3 10 5 O 1029,7 7 0,0
20.02.2018 11:00:00 -9,8 -11,4 6 3 9 5 OZO 1030,1 8 0,0
20.02.2018 10:00:00 -10,5 -11,9 5 3 10 5 OZO 1030,0 3,5 0,0
20.02.2018 09:00:00 -11,4 -12,7 3 2 7 4 OZO 1030,2 2,4 0,0
20.02.2018 08:00:00 -12,1 -13,4 4 2 6 4 O 1030,2 6 0,0
20.02.2018 07:00:00 -13,2 -14,7 4 2 8 5 OZO 1030,1 11 0,0
20.02.2018 06:00:00 -13,3 -14,7 1 1 3 2 ONO 1030,2 23 0,0
20.02.2018 05:00:00 -13,2 -14,6 1 1 4 2 ONO 1030,4 13 0,0
20.02.2018 04:00:00 -11,8 -13,0 2 1 5 3 ZO 1030,6 6 0,2
20.02.2018 03:00:00 -10,8 -12,0 1 1 5 3 O 1030,9 3,1 0,1
20.02.2018 02:00:00 -10,7 -11,7 3 2 6 3 O 1031,1 3,6 0,0
20.02.2018 01:00:00 -10,8 -11,8 3 2 5 3 OZO 1031,2 2,5 0,0
20.02.2018 00:00:00 -11,1 -12,2 3 2 7 4 O 1031,2 3,8 0,1
19.02.2018 23:00:00 -11,3 -12,5 3 2 7 4 O 1031,4 2,4 0,1
19.02.2018 22:00:00 -11,3 -12,5 4 2 9 5 O 1031,5 2,6 0,0
19.02.2018 21:00:00 -12,5 -13,7 3 2 5 3 OZO 1031,3 21 0,0
19.02.2018 20:00:00 -11,7 -12,6 2 1 6 4 OZO 1031,2 16 0,0
19.02.2018 19:00:00 -10,2 -10,9 4 2 9 5 O 1030,9 10 0,0
19.02.2018 18:00:00 -10,7 -11,5 4 2 6 3 OZO 1030,9 10 0,1
19.02.2018 17:00:00 -8,6 -9,4 1 1 4 2 ZZO 1030,8 24 0,0
19.02.2018 16:00:00 -5,9 -8,4 2 1 7 4 OZO 1030,3 33 0,0
19.02.2018 15:00:00 -4,1 -7,5 2 1 7 4 ZO 1029,9 38 0,0
19.02.2018 14:00:00 -2,8 -7,4 2 1 5 3 WZW 1029,7 36 0,0
19.02.2018 13:00:00 -2,8 -7,3 1 1 8 5 ZZW 1029,6 27 0,0
19.02.2018 12:00:00 -3,9 -8,0 3 2 9 5 WZW 1029,7 34 0,0
19.02.2018 11:00:00 -3,3 -6,9 1 1 4 2 ZZW 1029,4 3,2 0,0
19.02.2018 10:00:00 -6,7 -8,2 2 1 5 3 O 1029,2 8 0,0
19.02.2018 09:00:00 -7,4 -8,3 2 1 4 2 ZO 1028,9 8 0,0
19.02.2018 08:00:00 -8,1 -9,0 3 1 5 3 O 1028,4 11 0,0
19.02.2018 07:00:00 -7,9 -8,6 1 1 4 2 ONO 1027,9 12 0,0
19.02.2018 06:00:00 -7,7 -8,5 1 1 4 2 ZO 1027,5 11 0,0
19.02.2018 05:00:00 -7,6 -8,3 1 1 4 2 O 1027,0 10 0,0
19.02.2018 04:00:00 -7,6 -8,4 1 1 3 2 NNO 1026,6 13 0,0
19.02.2018 03:00:00 -7,2 -8,0 1 1 6 3 NO 1026,4 20 0,0
19.02.2018 02:00:00 -6,7 -7,6 3 2 8 4 O 1026,2 8 0,0
19.02.2018 01:00:00 -6,2 -7,1 5 3 9 5 O 1025,9 8 0,1
19.02.2018 00:00:00 -6,0 -6,6 3 2 6 3 OZO 1025,8 6 0,0
18.02.2018 23:00:00 -5,7 -6,5 3 1 6 3 O 1025,5 6 0,0
18.02.2018 22:00:00 -5,5 -6,4 1 1 8 4 ZO 1025,3 9 0,0

tt = temperatuur
td = dauwpunt
ff = windsnelheid
fx = windstoten
dd = windrichting
ppp = luchtdruk
vv = zicht
rr = neerslag

Weerstations in de omgeving